Wind_Speed
4 5 5 5 5 5 6 6 6 6 6 5 4 4 4 5 5 6 6 6 6 6 6 6 7 7 7 6 6 6 5 5 4 5 5 5 5 5 6 6 6 6 7
5 6 6 6 6 6 6 6 5 5 4 4 3 3 4 4 5 6 6 6 6 6 7 7 7 7 7 7 7 6 6 5 4 4 5 5 4 5 5 5 5 6 7
5 7 7 7 7 6 6 5 5 4 3 3 3 3 3 4 5 6 6 7 7 7 7 7 7 7 7 7 7 6 6 5 5 4 4 4 4 4 4 4 5 6 6
6 7 9 9 8 7 6 5 5 4 3 2 1 2 2 3 5 6 6 7 7 7 7 7 7 7 7 7 7 6 5 5 4 4 4 3 3 3 4 4 4 5 6
8 8 9 10 9 8 7 6 5 4 3 2 1 1 2 3 5 6 7 7 7 7 8 7 7 7 7 7 6 6 5 4 3 3 3 3 3 3 3 3 4 4 5
8 9 11 11 10 9 8 8 6 5 3 2 1 0 2 4 5 6 7 7 7 8 8 7 7 7 7 7 6 6 5 4 3 3 2 2 2 2 2 2 3 3 4
8 10 12 12 11 10 9 8 7 6 4 3 2 1 3 3 4 6 7 7 8 8 7 7 7 7 7 7 6 5 4 4 3 3 2 1 1 1 1 1 2 3 3
9 11 12 13 13 12 10 9 8 7 5 4 3 2 3 3 4 5 7 8 8 8 8 7 7 7 7 7 7 6 5 4 4 3 2 2 1 1 1 1 1 2 3
11 11 12 13 14 13 11 10 9 8 7 5 4 3 3 4 5 6 7 8 9 8 8 7 8 8 8 7 7 6 5 5 4 4 3 3 2 2 2 2 2 3 3
11 13 14 14 14 13 13 12 10 8 8 6 6 5 4 5 5 6 8 9 9 9 8 8 8 8 8 8 7 6 6 5 5 5 4 3 3 3 3 4 4 4 4
11 13 15 15 15 15 14 13 11 10 9 8 7 6 6 6 6 7 8 9 10 9 9 9 9 9 9 8 7 6 6 6 6 5 5 5 5 4 4 5 5 5 5
12 13 15 16 16 16 16 14 13 12 11 9 8 8 8 7 7 8 9 10 10 10 9 9 9 8 8 7 6 6 6 6 5 5 5 5 5 5 6 6 6 6 6
13 14 17 17 17 18 17 16 15 13 12 11 10 10 9 9 8 8 9 10 10 10 9 8 8 6 6 6 5 5 5 5 5 5 6 5 6 6 6 6 7 7 7
13 15 18 19 18 18 18 18 16 14 13 12 11 11 10 9 9 9 9 10 9 9 8 7 6 5 5 5 5 5 5 5 5 4 4 5 6 7 7 7 8 8 8
14 15 17 17 18 20 20 19 18 16 14 13 12 11 11 10 10 9 9 9 9 8 7 6 5 4 4 4 4 4 4 4 4 3 4 4 4 5 6 7 7 8 9
13 14 17 18 19 20 21 20 19 17 15 14 13 11 11 11 11 10 10 9 8 7 6 4 4 3 3 3 3 3 3 4 4 3 3 4 4 5 5 6 7 8 8
11 14 17 18 20 20 21 21 19 17 15 13 13 12 12 12 11 10 9 8 7 6 5 4 3 2 2 1 1 2 3 3 3 3 3 3 4 5 5 5 6 7 9
11 14 17 18 20 21 21 22 20 18 15 14 13 13 13 12 11 9 8 7 6 5 4 3 2 1 1 1 1 1 2 2 2 2 2 3 3 4 5 5 6 7 8
11 14 18 20 21 21 21 21 20 18 16 15 14 13 13 12 10 9 8 7 6 5 4 3 2 1 1 1 1 1 1 1 1 1 2 2 3 3 4 5 6 6 6
11 14 19 20 21 21 21 20 20 19 18 16 14 14 12 11 10 9 8 7 6 5 4 3 2 1 1 1 1 1 1 1 0 1 1 2 3 3 3 4 4 5 6
10 13 16 19 21 21 20 20 20 20 18 16 14 13 12 11 10 9 8 8 7 6 4 4 3 2 2 2 2 2 2 1 1 1 0 1 1 2 2 3 3 4 5
8 12 16 19 21 21 21 20 20 20 18 16 15 13 13 12 11 10 9 8 8 7 5 4 3 3 2 2 2 2 2 2 1 1 1 0 0 1 1 2 3 4 5
7 11 16 19 21 21 20 19 18 18 17 17 15 14 13 13 12 11 10 9 8 8 6 5 4 3 3 2 2 2 2 2 2 2 2 1 1 1 1 2 3 3 4
7 10 15 18 19 20 20 20 19 18 18 17 16 15 14 14 13 12 10 10 9 9 7 6 5 5 4 3 2 1 0 1 1 1 1 2 2 2 2 3 3 3 4
6 9 14 17 18 19 20 21 21 19 18 18 17 16 15 14 14 13 12 11 10 10 9 8 7 6 5 4 3 2 2 1 1 2 2 3 3 4 4 4 4 4 4
4 7 11 15 18 19 20 20 20 19 19 18 17 17 16 15 15 14 13 12 11 11 10 9 8 8 7 6 5 4 3 3 3 3 4 4 5 5 6 6 6 6 6
Wind_Direction
227 213 211 199 182 164 149 133 119 108 101 90 71 54 35 24 19 16 12 11 9 8 10 11 14 18 21 24 26 30 31 34 43 50 55 64 71 73 78 81 82 85 90
225 212 214 211 197 179 163 145 130 118 109 96 75 52 34 22 15 15 11 6 3 4 6 7 8 10 14 17 19 20 20 25 37 44 50 56 64 69 75 78 82 85 90
228 221 221 217 207 191 174 158 144 131 119 104 79 53 32 16 11 10 8 2 359 359 360 2 4 7 9 11 12 12 13 20 27 35 42 54 63 65 70 77 82 88 91
231 224 223 217 212 200 185 171 159 148 135 122 93 53 23 6 3 3 1 360 358 356 356 356 358 1 5 7 7 6 5 9 14 25 36 50 65 69 72 78 87 93 96
233 225 223 218 214 207 194 182 173 164 152 142 129 47 3 355 358 358 356 356 355 353 353 354 353 356 359 359 359 358 356 355 3 16 39 50 57 70 78 82 92 101 102
241 230 226 221 217 210 200 189 185 178 172 174 183 258 330 343 350 349 349 349 347 347 349 349 348 350 349 347 347 348 350 349 353 9 29 37 40 62 84 92 99 110 110
242 233 229 222 217 212 206 199 194 188 189 194 204 276 312 330 340 342 344 342 341 342 344 344 342 341 339 335 334 331 330 327 325 335 349 359 359 21 63 102 113 121 122
248 236 230 223 218 213 211 208 202 198 197 202 217 258 299 317 324 330 335 334 333 334 335 336 334 332 330 330 329 324 315 311 310 307 310 308 313 309 288 202 157 150 146
250 239 230 224 217 212 210 209 210 209 204 208 223 248 277 301 312 319 323 323 323 324 327 328 328 325 322 322 322 321 315 307 299 297 296 277 278 288 266 239 206 184 174
248 241 233 224 217 212 208 208 211 213 213 221 227 242 264 284 300 308 314 316 317 317 318 318 316 314 314 313 311 312 308 301 293 290 285 269 262 261 249 235 219 204 195
249 242 232 224 218 213 208 209 210 215 219 228 232 239 258 276 290 302 307 308 310 312 312 312 312 310 309 307 302 300 301 299 294 282 272 267 254 249 238 232 230 224 214
250 242 229 223 218 213 207 208 211 216 222 231 239 241 255 269 284 296 301 303 305 308 309 308 309 308 305 303 298 293 289 288 288 275 266 263 249 240 230 231 234 232 226
256 242 225 219 215 214 209 207 209 215 224 232 240 245 253 265 277 290 294 298 301 306 308 307 305 305 303 300 296 287 282 280 277 271 261 256 248 237 232 234 236 233 231
257 241 228 218 213 212 210 208 208 215 225 233 240 248 253 261 273 285 290 293 297 302 305 304 302 304 306 301 293 285 277 276 277 265 259 256 243 235 237 241 239 235 233
258 244 227 218 215 214 213 208 207 214 224 232 239 249 251 257 269 279 288 290 293 297 302 300 300 307 305 301 295 285 276 276 279 268 260 254 239 233 238 240 239 235 234
260 236 222 218 217 216 214 210 209 215 222 230 238 246 251 255 265 274 281 284 287 288 290 291 299 304 308 310 303 290 278 273 269 257 254 252 244 242 245 244 239 237 236
253 236 224 215 213 211 209 208 211 214 220 233 237 244 249 253 261 269 273 276 276 277 280 279 287 300 312 310 299 290 286 272 256 249 252 250 247 247 248 249 245 243 241
251 237 221 210 207 207 207 209 213 217 225 232 235 243 248 250 253 257 260 264 262 261 262 262 268 290 315 329 332 313 289 272 266 255 256 248 244 245 247 249 248 249 250
246 230 214 205 202 203 203 207 212 218 223 227 233 240 243 244 242 243 247 249 244 242 243 236 236 258 307 352 22 38 35 313 270 257 245 243 242 249 253 251 251 254 258
240 224 211 205 201 203 204 208 212 215 218 222 228 234 237 234 232 234 236 234 229 226 219 211 199 175 131 87 81 81 65 37 329 274 250 248 249 255 255 253 252 259 266
229 216 205 202 202 203 206 208 209 210 214 220 222 225 225 228 229 232 229 223 216 210 200 194 183 167 136 116 104 87 69 51 32 18 301 251 247 256 266 268 268 271 275
232 213 208 206 204 202 204 202 204 207 211 213 216 219 224 227 228 224 218 214 210 205 197 189 181 171 151 134 118 99 87 64 44 42 42 83 238 274 279 284 287 286 283
235 214 205 203 201 201 201 199 203 205 206 209 213 215 221 223 221 217 216 215 209 203 198 193 189 185 172 157 137 116 94 72 61 48 47 40 6 340 320 311 301 297 289
240 212 202 202 202 202 202 202 205 208 207 207 210 215 218 218 216 215 217 216 210 206 203 201 201 198 192 192 194 179 115 51 48 33 20 355 352 349 344 331 310 299 294
246 208 199 200 200 201 203 204 204 206 207 207 210 214 215 215 215 216 217 216 214 211 209 209 210 210 210 214 225 234 252 282 319 334 336 334 333 330 321 320 322 318 311
241 204 198 195 196 197 199 200 202 206 208 209 212 215 216 216 216 219 220 219 217 216 217 217 218 219 221 229 237 245 257 276 291 300 308 314 314 311 309 309 309 309 307
Height
5877 5878 5880 5881 5882 5882 5883 5883 5884 5885 5886 5887 5888 5889 5890 5890 5890 5891 5891 5891 5891 5891 5890 5890 5890 5890 5890 5890 5890 5889 5890 5890 5890 5890 5890 5890 5890 5890 5890 5890 5890 5890 5890
5877 5878 5879 5880 5881 5882 5882 5883 5884 5885 5886 5887 5888 5889 5890 5890 5891 5891 5891 5891 5891 5891 5891 5890 5890 5890 5890 5890 5890 5890 5890 5890 5890 5890 5890 5890 5891 5891 5891 5891 5891 5891 5891
5876 5877 5878 5880 5881 5881 5882 5883 5884 5885 5886 5887 5888 5889 5890 5890 5891 5891 5891 5891 5891 5891 5891 5891 5890 5890 5890 5890 5891 5891 5891 5890 5891 5891 5891 5891 5891 5891 5892 5892 5892 5892 5892
5875 5876 5877 5879 5879 5880 5881 5882 5883 5884 5886 5887 5888 5888 5889 5890 5890 5891 5891 5891 5891 5891 5891 5891 5891 5891 5891 5891 5891 5891 5891 5891 5891 5891 5891 5891 5891 5892 5892 5893 5893 5893 5893
5874 5875 5876 5877 5878 5879 5880 5881 5883 5884 5885 5886 5887 5888 5889 5889 5890 5890 5890 5890 5890 5890 5890 5891 5891 5891 5891 5891 5891 5891 5891 5891 5891 5891 5891 5892 5892 5892 5892 5893 5893 5893 5893
5872 5873 5875 5876 5877 5878 5879 5880 5882 5883 5884 5886 5886 5887 5888 5888 5889 5889 5889 5890 5890 5890 5890 5890 5891 5891 5890 5891 5891 5890 5891 5891 5891 5891 5891 5892 5892 5892 5892 5893 5893 5893 5894
5871 5872 5873 5874 5875 5877 5878 5879 5881 5882 5884 5885 5886 5886 5887 5887 5888 5888 5889 5889 5889 5889 5890 5890 5890 5890 5890 5890 5890 5890 5890 5890 5890 5891 5891 5891 5892 5892 5892 5893 5893 5893 5894
5869 5870 5871 5872 5873 5875 5877 5878 5880 5881 5883 5884 5885 5885 5886 5887 5887 5887 5888 5888 5888 5889 5889 5889 5889 5889 5889 5889 5889 5889 5889 5889 5889 5890 5890 5890 5891 5892 5892 5893 5893 5894 5894
5866 5868 5868 5869 5871 5873 5875 5877 5879 5880 5881 5883 5884 5884 5885 5886 5886 5886 5887 5887 5888 5888 5888 5888 5888 5888 5888 5888 5888 5888 5888 5888 5888 5889 5889 5889 5890 5891 5891 5892 5893 5893 5894
5864 5865 5866 5867 5869 5871 5873 5875 5877 5879 5880 5881 5883 5884 5884 5885 5885 5885 5886 5886 5887 5887 5887 5887 5887 5887 5887 5887 5887 5887 5887 5887 5887 5888 5888 5888 5889 5890 5890 5891 5892 5893 5894
5861 5861 5863 5865 5866 5868 5871 5873 5875 5877 5879 5880 5881 5882 5883 5884 5884 5884 5884 5885 5885 5886 5886 5886 5886 5885 5885 5885 5885 5885 5885 5885 5886 5886 5887 5887 5888 5888 5889 5890 5891 5892 5893
5857 5858 5859 5862 5864 5866 5869 5871 5873 5875 5877 5878 5880 5881 5882 5883 5883 5883 5883 5884 5884 5884 5884 5884 5884 5884 5884 5884 5884 5884 5884 5884 5884 5885 5885 5886 5886 5887 5888 5889 5890 5891 5892
5853 5854 5856 5858 5861 5863 5866 5868 5871 5873 5875 5877 5878 5879 5880 5881 5882 5882 5882 5882 5882 5883 5883 5883 5883 5883 5883 5883 5883 5883 5883 5883 5883 5884 5884 5885 5885 5886 5887 5888 5889 5890 5891
5849 5850 5851 5854 5857 5860 5863 5866 5868 5871 5873 5875 5877 5878 5879 5880 5880 5880 5880 5880 5881 5881 5881 5882 5882 5882 5882 5882 5882 5882 5882 5882 5882 5883 5883 5883 5884 5885 5885 5886 5887 5888 5889
5845 5846 5847 5850 5854 5857 5860 5863 5866 5868 5871 5873 5875 5876 5877 5878 5879 5879 5879 5879 5879 5880 5880 5880 5881 5881 5881 5881 5881 5881 5881 5881 5881 5882 5882 5882 5883 5884 5884 5885 5886 5887 5888
5841 5842 5844 5847 5851 5854 5857 5860 5863 5866 5869 5871 5873 5874 5875 5876 5877 5878 5878 5878 5878 5878 5879 5880 5880 5880 5880 5880 5880 5880 5880 5880 5880 5881 5881 5881 5882 5882 5883 5884 5884 5885 5886
5837 5838 5841 5844 5847 5851 5854 5858 5860 5863 5866 5868 5870 5872 5874 5875 5876 5876 5876 5877 5877 5877 5878 5879 5879 5880 5880 5880 5880 5879 5879 5879 5880 5880 5880 5880 5881 5881 5882 5882 5883 5883 5884
5832 5834 5837 5840 5844 5848 5851 5855 5858 5861 5864 5866 5868 5870 5871 5873 5874 5875 5875 5876 5876 5877 5877 5878 5879 5879 5879 5879 5879 5879 5879 5879 5879 5879 5879 5880 5880 5881 5881 5881 5882 5882 5883
5828 5830 5833 5837 5841 5845 5848 5852 5856 5859 5862 5864 5866 5868 5869 5871 5872 5873 5874 5875 5875 5876 5877 5877 5878 5879 5879 5879 5879 5879 5879 5879 5879 5879 5879 5879 5880 5880 5880 5880 5881 5881 5881
5825 5826 5830 5834 5838 5842 5846 5849 5853 5856 5859 5862 5864 5866 5868 5869 5871 5872 5873 5874 5874 5875 5876 5877 5878 5878 5879 5879 5879 5879 5879 5879 5879 5879 5879 5879 5879 5879 5879 5880 5880 5880 5880
5822 5824 5827 5831 5835 5839 5843 5847 5850 5854 5857 5860 5863 5865 5866 5868 5870 5871 5872 5873 5874 5875 5875 5876 5877 5878 5878 5879 5879 5879 5879 5879 5879 5879 5879 5879 5879 5879 5879 5879 5879 5879 5879
5821 5822 5825 5829 5833 5837 5841 5844 5848 5852 5855 5858 5861 5863 5865 5867 5868 5870 5871 5872 5873 5874 5875 5876 5877 5878 5878 5879 5879 5880 5879 5880 5879 5879 5879 5878 5878 5878 5878 5878 5878 5878 5877
5820 5821 5823 5827 5830 5835 5839 5843 5846 5850 5853 5856 5859 5861 5863 5865 5867 5869 5870 5871 5872 5873 5874 5875 5877 5878 5878 5879 5879 5880 5880 5880 5879 5879 5879 5878 5878 5878 5878 5877 5877 5877 5876
5819 5819 5821 5825 5829 5833 5837 5841 5845 5848 5851 5854 5857 5859 5862 5864 5865 5867 5869 5870 5872 5873 5874 5875 5876 5877 5878 5879 5879 5880 5880 5880 5880 5879 5879 5878 5878 5877 5877 5877 5876 5876 5875
5818 5819 5821 5823 5827 5831 5835 5839 5843 5846 5849 5852 5855 5858 5860 5862 5864 5866 5868 5869 5871 5872 5873 5874 5876 5877 5878 5878 5879 5879 5879 5879 5879 5879 5879 5878 5878 5877 5877 5876 5876 5875 5874
5818 5819 5820 5823 5826 5829 5833 5836 5840 5844 5847 5850 5853 5856 5858 5860 5862 5864 5866 5868 5869 5871 5872 5873 5875 5876 5877 5877 5878 5878 5879 5879 5879 5878 5878 5878 5877 5877 5876 5875 5875 5874 5873